Location: Goleszów
(49.7327°N, 18.7414°E)
Time: 11:32:51
(UTC+02:00)

ISS - Visible Passes

Search period start: 22 September 2018 00:00
Search period end: 02 October 2018 00:00
Orbit: 403 x 408 km, 51.6° (Epoch: 22 September)

Date Brightness Start Highest point End Pass type
(mag) Time Alt. Az. Time Alt. Az. Time Alt. Az.
22 Sep -2.0 20:27:23 10° SSW 20:28:50 20° S 20:28:50 20° S visible
23 Sep -2.1 19:36:16 10° S 19:38:31 17° SE 19:39:34 15° ESE visible
23 Sep -1.4 21:11:18 10° WSW 21:12:17 18° WSW 21:12:17 18° WSW visible
24 Sep -3.6 20:19:32 10° SW 20:22:44 48° SSE 20:22:49 48° SSE visible
25 Sep -2.9 19:27:56 10° SSW 19:30:55 31° SSE 19:33:12 15° E visible
25 Sep -2.2 21:03:56 10° W 21:05:53 33° W 21:05:53 33° W visible
26 Sep -3.9 20:12:00 10° WSW 20:15:18 81° SSE 20:16:08 47° E visible
26 Sep -0.4 21:48:39 10° W 21:48:48 11° W 21:48:48 11° W visible
27 Sep -3.6 19:20:08 10° SW 19:23:23 56° SSE 19:26:17 12° ENE visible
27 Sep -2.5 20:56:37 10° W 20:58:57 40° WNW 20:58:57 40° WNW visible
28 Sep -3.7 20:04:36 10° W 20:07:54 72° N 20:09:02 37° ENE visible
28 Sep -0.5 21:41:18 10° WNW 21:41:42 13° WNW 21:41:42 13° WNW visible
29 Sep -3.8 19:12:35 10° WSW 19:15:53 89° W 19:19:03 11° ENE visible
29 Sep -2.6 20:49:17 10° W 20:51:43 42° NW 20:51:43 42° NW visible
30 Sep -3.5 19:57:13 10° W 20:00:30 60° N 20:01:42 34° ENE visible
30 Sep -0.6 21:33:51 10° WNW 21:34:21 14° WNW 21:34:21 14° WNW visible
01 Oct -3.6 19:05:09 10° W 19:08:26 67° N 19:11:39 11° ENE visible
01 Oct -2.8 20:41:50 10° WNW 20:44:18 45° WNW 20:44:18 45° WNW visible
